[[{"header":{"parameterUnit":"m.s-1","parameterCategory":1,"la1":30.2991,"la2":30.254,"lo1":-89.0895,"lo2":-89.0444,"dy":0.0017,"dx":0.0017,"nx":28,"ny":28,"refTime":"2024-06-17T21:00:00:Z","depth":0,"parameterNumber":2,"parameterNumberName":"U-component_of_WINDS"},"data":[0,0,0,0,0,0,0,0,0,0,0,0,0,0,0,0,0,0,0,0,0,0,0,0,0,0,0,0,0,0,0,0,0,0,0,0,0,0,0,0,0,0,0,0,0,0,0,0,0,0,0,0,0,0,0,0,0,0,-5.7094,-5.7094,0,-5.7134,-5.7134,-5.7135,-5.7032,-5.7029,-5.7026,-5.7023,-5.706,-5.7064,-5.7068,0,0,0,0,0,0,0,0,0,0,0,0,0,-5.6924,-5.6928,-5.7094,-5.7094,-5.7095,-5.7134,-5.7134,-5.7135,-5.7033,-5.7029,-5.7025,-5.7021,-5.7058,-5.7063,-5.7068,0,0,0,0,0,0,0,0,0,0,0,0,0,-5.6984,-5.6929,-5.7094,-5.7049,-5.7045,-5.7134,-5.7134,-5.7135,-5.7033,-5.7029,-5.7024,-5.7019,-5.7057,-5.7063,-5.7069,-5.7202,0,0,-5.7087,-5.7089,0,0,0,0,0,0,0,0,-5.6981,-5.6991,-5.7055,-5.7052,-5.7048,-5.7073,-5.7088,-5.7157,-5.7035,-5.7038,-5.7023,-5.7017,-5.7068,-5.7073,-5.709,-5.7203,-5.7205,-5.7087,-5.7091,-5.7094,-5.7095,0,0,0,0,0,0,0,-5.6977,-5.6988,-5.7109,-5.7056,-5.7052,-5.7025,-5.7028,-5.7101,-5.7079,-5.7037,-5.703,-5.7036,-5.7065,-5.7085,-5.7091,-5.7205,-5.7087,-5.7092,-5.7096,-5.7098,-5.7427,-5.7432,0,0,0,0,0,0,-5.6979,-5.6985,-5.7108,-5.7111,-5.7002,-5.7032,-5.7035,-5.707,-5.7078,-5.7075,-5.704,-5.7031,-5.7077,-5.7084,-5.7092,-5.7246,-5.7093,-5.7099,-5.7102,-5.7422,-5.7428,-5.7434,0,0,0,0,0,0,-5.6976,-5.6991,-5.7106,-5.7046,-5.7059,-5.704,-5.7079,-5.7073,-5.7093,-5.708,-5.7076,-5.7065,-5.7074,-5.7083,-5.7175,-5.7246,-5.7102,-5.7107,-5.7416,-5.7424,-5.7431,-5.7557,0,0,0,0,0,0,-5.6971,-5.6991,-5.7042,-5.7048,-5.7062,-5.7191,-5.7084,-5.7077,-5.7104,-5.7093,-5.7102,-5.7099,-5.7071,-5.7166,-5.7181,-5.7251,-5.7112,-5.7409,-5.7419,-5.7428,-5.7546,-5.7568,-5.7586,0,0,0,0,0,-5.6966,-5.7075,-5.7045,-5.706,-5.7127,-5.7195,-5.7203,-5.7169,-5.711,-5.7161,-5.7152,-5.7099,-5.7236,-5.7177,-5.7192,-5.7265,-5.7405,-5.7416,-5.7428,-5.7537,-5.7564,-5.7586,0,0,0,0,0,0,-5.7077,-5.7075,-5.7042,-5.7157,-5.7177,-5.7178,-5.724,-5.7198,-5.7234,-5.7222,-5.7177,-5.718,-5.728,-5.7282,-5.7215,-5.7393,-5.731,-5.7325,-5.7388,-5.7413,-5.7433,-5.7429,-5.7117,0,0,0,0,0,-5.7115,-5.7172,-5.7167,-5.7269,-5.7281,-5.726,-5.7288,-5.726,-5.7279,-5.7286,-5.7285,-5.7303,-5.735,-5.7382,-5.7425,-5.7547,-5.7546,-5.7605,-5.7625,-5.7641,-5.7654,-5.7717,-5.7742,-5.7472,-5.7472,-5.7471,0,0,-5.7194,-5.72,-5.7239,-5.7292,-5.7304,-5.7362,-5.7267,-5.7333,-5.7376,-5.7296,-5.7382,-5.7382,-5.7399,-5.7506,-5.7553,-5.7511,-5.7729,-5.7656,-5.767,-5.7673,-5.7731,-5.7757,-5.7779,-5.748,-5.7478,-5.7477,0,0,-5.7367,-5.7379,-5.7464,-5.7478,-5.7499,-5.7483,-5.7504,-5.7511,-5.7508,-5.7594,-5.7535,-5.7584,-5.7667,-5.7681,-5.77,-5.7878,-5.7829,-5.7894,-5.7998,-5.8059,-5.808,-5.8099,-5.816,-5.8183,-5.7907,-5.7907,-5.7908,0,-5.7462,-5.7549,-5.7513,-5.7583,-5.7607,-5.7539,-5.7624,-5.7639,-5.7672,-5.7689,-5.7642,-5.7744,-5.7751,-5.7859,-5.7903,-5.7921,-5.7941,-5.7891,-5.8081,-5.8099,-5.8115,-5.8173,-5.8197,-5.7915,-5.7914,-5.7913,-5.7912,0,-5.7663,-5.7725,-5.7791,-5.7825,-5.7857,-5.7934,-5.7908,-5.7944,-5.7914,-5.7903,-5.7991,-5.7998,-5.804,-5.8064,-5.8035,-5.8168,-5.8141,-5.8088,-5.8003,-5.8149,-5.8203,-5.8225,-5.7925,-5.7923,-5.7921,-5.7919,0,0,-5.7906,-5.792,-5.7944,-5.7958,-5.7976,-5.8021,-5.8095,-5.8137,-5.8168,-5.8193,-5.8252,-5.8324,-5.8275,-5.8296,-5.8268,-5.8322,-5.846,-5.8262,-5.8262,-5.8296,-5.8604,-5.8642,-5.8668,-5.8429,-5.8433,-5.8437,-5.8602,0,-5.8075,-5.8202,-5.8171,-5.8296,-5.8351,-5.8287,-5.8351,-5.8368,-5.836,-5.8404,-5.8395,-5.8445,-5.8378,-5.839,-5.8441,-5.8433,-5.8521,-5.8421,-5.8481,-5.8484,-5.8476,-5.8697,-5.8737,-5.8893,-5.8623,-5.8627,-5.8629,0,-5.8288,-5.8322,-5.8453,-5.846,-5.8482,-5.854,-5.8575,-5.862,-5.8636,-5.8627,-5.8651,-5.8612,-5.8682,-5.8599,-5.8694,-5.8627,-5.865,-5.8649,-5.8655,-5.8657,-5.8563,-5.8702,-5.8942,-5.8964,-5.8662,-5.866,-5.8657,0,-5.8449,-5.8528,-5.8616,-5.863,-5.8641,-5.8683,-5.8689,-5.8702,-5.8729,-5.876,-5.8776,-5.8815,-5.8836,-5.8866,-5.8838,-5.878,-5.8937,-5.8852,-5.8929,-5.893,-5.8962,-5.896,-5.9207,-5.8982,-5.8982,-5.8982,-5.8981,0,-5.8639,-5.8721,-5.8688,-5.8742,-5.8831,-5.8795,-5.8884,-5.8882,-5.8894,-5.8945,-5.8893,-5.8942,-5.8903,-5.8948,-5.8926,-5.9007,-5.9018,-5.901,-5.9003,-5.9014,-5.9014,-5.9026,-5.9013,-5.8988,-5.8986,-5.8985,-5.8984,0,-5.8833,-5.8814,-5.8905,-5.8909,-5.8912,-5.8977,-5.8979,-5.9028,-5.9017,-5.9082,-5.9095,-5.9077,-5.9127,-5.9103,-5.9155,-5.914,-5.9244,-5.9224,-5.9239,-5.9232,-5.931,-5.9302,-5.957,-5.9603,-5.936,-5.9363,-5.9365,0,-5.8954,-5.9016,-5.9026,-5.9057,-5.9067,-5.9118,-5.9146,-5.9112,-5.9143,-5.9166,-5.9212,-5.9258,-5.9293,-5.9376,-5.9366,-5.9406,-5.9384,-5.9475,-5.9389,-5.9397,-5.9382,-5.9378,-5.9383,-5.9492,-5.9495,-5.9497,-5.9499,0,-5.9171,-5.9158,-5.9201,-5.924,-5.9274,-5.9303,-5.9327,-5.9355,-5.9322,-5.9359,-5.941,-5.9437,-5.9491,-5.9536,-5.957,-5.9575,-5.9531,-5.9526,-5.9546,-5.9556,-5.9561,-5.9556,-5.9283,-5.952,-5.9518,-5.9516,-5.9515,-5.9514,-5.933,-5.9381,-5.9396,-5.9444,-5.9459,-5.9483,-5.9529,-5.9523,-5.9566,-5.9607,-5.9585,-5.9644,-5.9658,-5.97,-5.971,-5.9755,-5.9719,-5.9747,-5.9754,-5.9761,-5.977,-5.9556,-5.9762,-5.9761,-5.976,-5.976,-5.9759,0,-5.9542,-5.9548,-5.9593,-5.9629,-5.9667,-5.9624,-5.9648,-5.9682,-5.9735,-5.9753,-5.9788,-5.9846,-5.989,-5.9884,-5.9924,-5.9961,-5.9941,-5.9972,-5.9967,-5.9969,-5.9802,-5.978,-5.9987,-5.9987,-5.9987,-5.9987,-5.9986,-5.9986,-5.9656,-5.9739,-5.9729,-5.9818,-5.9824,-5.9882,-5.9899,-5.992,-5.9934,-6.0001,-6.0038,-6.0034,-6.0042,-6.0082,-6.0119,-6.0116,-6.0132,-6.017,-6.0159,-6.0003,-5.9981,-5.9959,-5.9938,-6.0174,-6.0175,-6.0322,-6.0323,-6.0324]},{"header":{"parameterUnit":"m.s-1","parameterCategory":1,"la1":30.2991,"la2":30.254,"lo1":-89.0895,"lo2":-89.0444,"dy":0.0017,"dx":0.0017,"nx":28,"ny":28,"refTime":"2024-06-17T21:00:00:Z","depth":0,"parameterNumber":3,"parameterNumberName":"V-component_of_WINDS"},"data":[0,0,0,0,0,0,0,0,0,0,0,0,0,0,0,0,0,0,0,0,0,0,0,0,0,0,0,0,0,0,0,0,0,0,0,0,0,0,0,0,0,0,0,0,0,0,0,0,0,0,0,0,0,0,0,0,0,0,-0.2255,-0.2254,0,-0.2113,-0.2112,-0.211,-0.2018,-0.2017,-0.2017,-0.2016,-0.187,-0.1867,-0.1864,0,0,0,0,0,0,0,0,0,0,0,0,0,-0.2444,-0.2441,-0.2255,-0.2253,-0.2252,-0.2114,-0.2112,-0.211,-0.2018,-0.2017,-0.2017,-0.2016,-0.1871,-0.1867,-0.1863,0,0,0,0,0,0,0,0,0,0,0,0,0,-0.2338,-0.244,-0.2256,-0.2189,-0.2182,-0.2114,-0.2112,-0.2109,-0.2018,-0.2017,-0.2017,-0.2016,-0.1873,-0.1868,-0.1863,-0.1849,0,0,-0.1847,-0.1845,0,0,0,0,0,0,0,0,-0.2344,-0.2331,-0.2201,-0.2194,-0.2185,-0.2083,-0.2124,-0.2022,-0.2019,-0.208,-0.2016,-0.2015,-0.1941,-0.1931,-0.1906,-0.1842,-0.1836,-0.1847,-0.1844,-0.1842,-0.184,0,0,0,0,0,0,0,-0.2352,-0.2337,-0.2199,-0.2199,-0.219,-0.2166,-0.215,-0.2105,-0.2018,-0.2075,-0.2068,-0.2052,-0.1937,-0.1911,-0.1902,-0.1834,-0.1847,-0.1843,-0.1839,-0.1837,-0.1749,-0.175,0,0,0,0,0,0,-0.237,-0.2344,-0.2204,-0.2195,-0.2264,-0.2163,-0.2145,-0.2116,-0.2018,-0.2002,-0.2053,-0.2049,-0.192,-0.1908,-0.1896,-0.1873,-0.1842,-0.1837,-0.1834,-0.1749,-0.175,-0.175,0,0,0,0,0,0,-0.2374,-0.2358,-0.2209,-0.2267,-0.2246,-0.2161,-0.2129,-0.2114,-0.2088,-0.2001,-0.1985,-0.2043,-0.1919,-0.1903,-0.1861,-0.1866,-0.1835,-0.183,-0.1748,-0.1749,-0.175,-0.1826,0,0,0,0,0,0,-0.238,-0.236,-0.2355,-0.2268,-0.2244,-0.2178,-0.213,-0.2112,-0.208,-0.2072,-0.1987,-0.1973,-0.1917,-0.1869,-0.1856,-0.1859,-0.1826,-0.1747,-0.1748,-0.175,-0.1823,-0.183,-0.1836,0,0,0,0,0,-0.2387,-0.2382,-0.2355,-0.2339,-0.2235,-0.2178,-0.2164,-0.2101,-0.2081,-0.2074,-0.2018,-0.1975,-0.1868,-0.1866,-0.185,-0.1851,-0.1746,-0.1748,-0.1749,-0.182,-0.1828,-0.1836,0,0,0,0,0,0,-0.2472,-0.237,-0.2339,-0.2306,-0.2251,-0.2163,-0.2153,-0.2112,-0.2062,-0.2057,-0.198,-0.1961,-0.1927,-0.1884,-0.1884,-0.1832,-0.1802,-0.1801,-0.1861,-0.1868,-0.1874,-0.1885,-0.1822,0,0,0,0,0,-0.2488,-0.245,-0.2362,-0.2342,-0.2316,-0.2239,-0.2212,-0.2167,-0.2108,-0.2084,-0.2025,-0.1969,-0.1921,-0.1892,-0.1845,-0.1816,-0.1796,-0.1809,-0.1816,-0.1821,-0.1821,-0.1801,-0.1806,-0.1755,-0.1755,-0.1755,0,0,-0.2518,-0.2457,-0.2439,-0.2357,-0.231,-0.2272,-0.222,-0.2183,-0.2153,-0.2078,-0.2035,-0.1989,-0.1921,-0.1885,-0.1866,-0.1849,-0.183,-0.1823,-0.1828,-0.1825,-0.1803,-0.1808,-0.1812,-0.1756,-0.1756,-0.1756,0,0,-0.2555,-0.2506,-0.2482,-0.2436,-0.2364,-0.2313,-0.2308,-0.2224,-0.2191,-0.2146,-0.2088,-0.2052,-0.1974,-0.1926,-0.1892,-0.1909,-0.1867,-0.1896,-0.1929,-0.1911,-0.1915,-0.1918,-0.1923,-0.1925,-0.1895,-0.1896,-0.1896,0,-0.2602,-0.2543,-0.2475,-0.2441,-0.2406,-0.2336,-0.2311,-0.2269,-0.2186,-0.2163,-0.2144,-0.2043,-0.1992,-0.1944,-0.1948,-0.1923,-0.1913,-0.1905,-0.192,-0.1922,-0.1924,-0.1928,-0.193,-0.19,-0.1899,-0.1899,-0.1898,0,-0.2604,-0.2564,-0.2553,-0.2475,-0.2438,-0.2409,-0.2336,-0.2307,-0.2266,-0.2216,-0.217,-0.2106,-0.2043,-0.2029,-0.1988,-0.1974,-0.1965,-0.1934,-0.1902,-0.1934,-0.1936,-0.1937,-0.1905,-0.1904,-0.1903,-0.1902,0,0,-0.2691,-0.2574,-0.2572,-0.2534,-0.245,-0.2417,-0.2384,-0.2322,-0.2299,-0.2243,-0.2213,-0.2147,-0.2117,-0.2079,-0.2032,-0.2016,-0.2031,-0.1986,-0.1983,-0.1996,-0.201,-0.2034,-0.2037,-0.2003,-0.2003,-0.2003,-0.2016,0,-0.2715,-0.2652,-0.2589,-0.2548,-0.2509,-0.2441,-0.2411,-0.2356,-0.2308,-0.2268,-0.2214,-0.2169,-0.2134,-0.211,-0.2091,-0.2034,-0.2033,-0.2032,-0.1973,-0.1971,-0.1992,-0.2038,-0.2063,-0.2079,-0.2016,-0.2016,-0.2017,0,-0.2734,-0.2681,-0.2637,-0.2554,-0.2535,-0.251,-0.2448,-0.241,-0.2345,-0.2311,-0.2268,-0.2217,-0.2177,-0.215,-0.2093,-0.2094,-0.2066,-0.2034,-0.2033,-0.2025,-0.1996,-0.2031,-0.2082,-0.2084,-0.2017,-0.2017,-0.2017,0,-0.2801,-0.2719,-0.2681,-0.2651,-0.2555,-0.2538,-0.2497,-0.2431,-0.2397,-0.2343,-0.232,-0.2262,-0.223,-0.2185,-0.212,-0.2106,-0.207,-0.2037,-0.204,-0.2041,-0.2035,-0.2036,-0.2082,-0.2018,-0.2018,-0.2018,-0.2018,0,-0.2834,-0.2809,-0.271,-0.2687,-0.2656,-0.2583,-0.2555,-0.2507,-0.2449,-0.2414,-0.2352,-0.232,-0.2237,-0.2195,-0.2144,-0.2104,-0.209,-0.206,-0.2047,-0.2066,-0.207,-0.2046,-0.2044,-0.2018,-0.2018,-0.2018,-0.2018,0,-0.2904,-0.2837,-0.2791,-0.2703,-0.268,-0.2661,-0.2585,-0.2559,-0.2507,-0.2464,-0.245,-0.2368,-0.2316,-0.2246,-0.2172,-0.2137,-0.2104,-0.2083,-0.2126,-0.2118,-0.2124,-0.2124,-0.2156,-0.2156,-0.2093,-0.2094,-0.2095,0,-0.2929,-0.2908,-0.2817,-0.279,-0.2751,-0.2707,-0.2672,-0.2599,-0.2566,-0.2489,-0.2472,-0.2415,-0.2365,-0.2284,-0.2218,-0.2161,-0.2138,-0.2153,-0.2129,-0.2148,-0.2137,-0.2139,-0.2136,-0.2159,-0.216,-0.2161,-0.2162,0,-0.2981,-0.2948,-0.2901,-0.2842,-0.2802,-0.2752,-0.2699,-0.268,-0.2595,-0.256,-0.2506,-0.2468,-0.2391,-0.2335,-0.2268,-0.2224,-0.2179,-0.217,-0.2167,-0.2186,-0.2212,-0.2197,-0.2142,-0.2169,-0.2169,-0.2168,-0.2168,-0.2167,-0.3028,-0.3006,-0.2938,-0.2887,-0.2839,-0.2791,-0.2762,-0.2706,-0.266,-0.2592,-0.2552,-0.2499,-0.2432,-0.2338,-0.2296,-0.2253,-0.2235,-0.2231,-0.223,-0.2231,-0.2236,-0.2219,-0.224,-0.224,-0.224,-0.2239,-0.2239,0,-0.3076,-0.3028,-0.2982,-0.291,-0.2869,-0.283,-0.2768,-0.2737,-0.2691,-0.2633,-0.2585,-0.2522,-0.2466,-0.2395,-0.2335,-0.2313,-0.2291,-0.23,-0.2301,-0.2291,-0.2256,-0.2264,-0.2319,-0.2319,-0.2319,-0.2319,-0.2319,-0.2319,-0.3096,-0.3055,-0.3015,-0.2949,-0.2902,-0.285,-0.2818,-0.2772,-0.2725,-0.2658,-0.2611,-0.2565,-0.2501,-0.2435,-0.2382,-0.2362,-0.2342,-0.2358,-0.2332,-0.2301,-0.2294,-0.2287,-0.2294,-0.2354,-0.2354,-0.237,-0.237,-0.237]}]]